Home > Weather > Spokane > Past weeks

Flag for U.S.A. Weather for the Past 2 Weeks in Spokane, Washington, U.S.A.

Now
43 °F

Passing clouds.


Feels Like: 41 °F
Forecast: 29 / 47 °F
Wind: 3 mph from East

Location: Felts Field

Current Time: Feb 10, 2016 at 3:22:04 PM

Latest Report: Feb 10, 2016 at 1:53 PM


Visibility: 10 mi

Pressure: 30.28 "Hg (28.25 "Hg at 569m altitude)

Humidity: 76%

Dew point: 36 °F

Location of SpokaneLocation

Historic Weather in Spokane — Graph

°F

Spokane Temperature Yesterday

Maximum temperature yesterday: 53 °F (at 2:53 PM)
Minimum temperature yesterday: 29 °F (at 3:53 AM)
Average temperature yesterday: 38 °F

High & Low Weather Summary for the Past Weeks

 TemperatureHumidityPressure
High53 °F (Feb 9, 2:53 PM)100% (Feb 7, 10:01 AM)30.70 "Hg (Feb 7, 10:01 AM)
Low22 °F (Feb 3, 2:53 AM)52% (Feb 5, 9:53 PM)29.63 "Hg (Jan 29, 12:53 PM)
Average36 °F83%30.24 "Hg
* Reported Jan 26 1:53 PM — Feb 10 1:53 PM, Spokane, Weather by CustomWeather, © 2016

Note: Actual official high and low records may vary slightly from our data, if they occured in-between our weather recording intervals... More about our weather records

Advertising

Spokane Weather History for the Previous 24 Hours

 ConditionsComfort  
Time TempWeatherWind HumidityBarometerVisibility
1:53 PM
Wed, Feb 10
43 °FPassing clouds.3 mph76%30.28 "Hg10 mi
12:53 PM41 °FScattered clouds.No wind80%30.29 "Hg10 mi
11:53 AM39 °FSunny.6 mph82%30.30 "Hg10 mi
10:53 AM37 °FPassing clouds.3 mph86%30.33 "Hg10 mi
9:53 AM35 °FFog.5 mph85%30.32 "Hg6 mi
8:53 AM33 °FFog.3 mph88%30.32 "Hg5 mi
7:53 AM32 °FIce fog.No wind92%30.31 "Hg1 mi
7:01 AM30 °FIce fog.3 mph96%30.25 "Hg1 mi
5:58 AM29 °FIce fog.3 mph93%30.28 "Hg3 mi
4:53 AM31 °FIce fog.5 mph92%30.30 "Hg6 mi
3:53 AM33 °FClear.No wind92%30.30 "Hg10 mi
2:53 AM32 °FClear.5 mph92%30.29 "Hg10 mi
1:53 AM33 °FClear.No wind88%30.30 "Hg10 mi
12:53 AM34 °FClear.5 mph88%30.29 "Hg10 mi
11:53 PM
Tue, Feb 9
33 °FClear.5 mph92%30.31 "Hg10 mi
10:53 PM35 °FClear.No wind88%30.29 "Hg10 mi
9:53 PM37 °FClear.No wind82%30.29 "Hg10 mi
8:53 PM36 °FClear.3 mph89%30.28 "Hg10 mi
7:53 PM39 °FClear.3 mph79%30.29 "Hg10 mi
6:53 PM39 °FClear.3 mph82%30.30 "Hg10 mi
5:53 PM41 °FClear.No wind80%30.29 "Hg10 mi
4:53 PM48 °FSunny.No wind66%30.29 "Hg10 mi
3:53 PM53 °FSunny.No wind52%30.31 "Hg10 mi
Weather by CustomWeather, © 2016

See weather overviewHow to use our weather pages